Home   Weather   Reims   Past weeks

Flag for France Past Weather in Reims, Champagne-Ardenne, France — Yesterday and Last 2 Weeks

Now
61 °F

Low clouds.


Feels Like: 61 °F
Forecast: 54 / 75 °F
Wind: 3 mph from North

Location: Chalons-Vatry

Current Time: May 24, 2017 at 9:56:09 am

Latest Report: May 24, 2017 at 9:30 am


Visibility: N/A

Pressure: 30.30 "Hg

Humidity: 83%

Dew Point: 55 °F

Location of ReimsLocation

Past Weather in Reims — Graph

°F

Reims Temperature Yesterday

Maximum temperature yesterday: 75 °F (at 4:00 pm)
Minimum temperature yesterday: 54 °F (at 4:30 am)
Average temperature yesterday: 65 °F

High & Low Weather Summary for the Past Weeks

 TemperatureHumidityPressure
High82 °F (May 17, 3:30 pm)100% (May 10, 5:00 am)30.42 "Hg (May 10, 5:00 am)
Low36 °F (May 10, 5:00 am)35% (May 10, 5:30 pm)29.42 "Hg (May 11, 7:30 pm)
Average60 °F73%30.01 "Hg
* Reported May 9 8:00 am — May 24 8:30 am, Reims. Weather by CustomWeather, © 2017

Note: Actual official high and low records may vary slightly from our data, if they occured in-between our weather recording intervals... More about our weather records

Advertising

Reims Weather History for the Previous 24 Hours

Scroll right to see more
 ConditionsComfort  
Time TempWeatherWind HumidityBarometerVisibility
8:30 am
Wed, May 24
59 °FPartly sunny.3 mph88%30.30 "HgN/A
8:00 am57 °FScattered clouds.2 mph94%30.27 "HgN/A
7:30 am55 °FScattered clouds.2 mph94%30.27 "HgN/A
7:00 am55 °FLow clouds.2 mph94%30.27 "HgN/A
6:30 am52 °FClear.6 mph100%30.27 "Hg6 mi
6:00 am54 °FClear.3 mph94%30.27 "Hg10 mi
5:30 am54 °FClear.3 mph94%30.24 "Hg10 mi
5:00 am55 °FClear.5 mph88%30.24 "Hg10 mi
4:30 am55 °FClear.6 mph94%30.27 "Hg10 mi
4:00 am55 °FClear.8 mph88%30.24 "Hg10 mi
3:30 am55 °FClear.6 mph88%30.24 "Hg10 mi
3:00 am55 °FClear.6 mph88%30.24 "Hg10 mi
2:30 am55 °FClear.7 mph88%30.24 "Hg10 mi
2:00 am57 °FClear.6 mph82%30.24 "Hg10 mi
1:30 am57 °FClear.5 mph82%30.24 "Hg10 mi
1:00 am59 °FClear.7 mph82%30.24 "Hg10 mi
12:30 am59 °FClear.6 mph82%30.24 "Hg10 mi
12:00 am61 °FClear.5 mph77%30.24 "Hg10 mi
11:30 pm
Tue, May 23
61 °FClear.6 mph77%30.24 "Hg10 mi
11:00 pm63 °FClear.6 mph73%30.24 "Hg10 mi
10:30 pm63 °FClear.5 mph73%30.24 "Hg10 mi
10:00 pm63 °FSunny.6 mph77%30.21 "Hg10 mi
9:30 pm64 °FSunny.6 mph73%30.21 "Hg10 mi
9:00 pm66 °FSunny.7 mph68%30.21 "Hg10 mi
8:30 pm68 °FSunny.8 mph64%30.21 "Hg10 mi
8:00 pm70 °FPassing clouds.12 mph57%30.18 "HgN/A
7:30 pm72 °FPassing clouds.12 mph53%30.18 "HgN/A
7:00 pm72 °FPassing clouds.12 mph53%30.18 "HgN/A
6:30 pm73 °FSunny.12 mph47%30.18 "Hg10 mi
6:00 pm73 °FPassing clouds.13 mph50%30.18 "HgN/A
5:30 pm73 °FSunny.12 mph50%30.18 "Hg10 mi
5:00 pm73 °FPassing clouds.13 mph47%30.18 "HgN/A
4:30 pm75 °FScattered clouds.12 mph50%30.15 "HgN/A
4:00 pm75 °FPartly sunny.12 mph50%30.15 "HgN/A
3:30 pm73 °FPassing clouds.13 mph53%30.15 "HgN/A
3:00 pm73 °FPassing clouds.12 mph57%30.15 "HgN/A
2:30 pm73 °FPassing clouds.13 mph57%30.15 "HgN/A
2:00 pm73 °FScattered clouds.12 mph61%30.15 "HgN/A
1:30 pm73 °FBroken clouds.7 mph57%30.15 "HgN/A
1:00 pm72 °FPassing clouds.6 mph57%30.15 "HgN/A
12:30 pm72 °FPassing clouds.5 mph57%30.15 "HgN/A
12:00 pm72 °FSunny.7 mph61%30.15 "Hg10 mi
11:30 am72 °FPassing clouds.5 mph53%30.15 "HgN/A
11:00 am70 °FSunny.3 mph60%30.12 "Hg10 mi
10:30 am68 °FScattered clouds.5 mph69%30.12 "HgN/A
10:00 am68 °FPassing clouds.7 mph64%30.12 "HgN/A
9:30 am66 °FSunny.9 mph68%30.12 "Hg10 mi
9:00 am66 °FPassing clouds.5 mph73%30.12 "HgN/A
Weather by CustomWeather, © 2017

See weather overviewHow to use our weather pages